星链-5973 (STARLINK-5973 )

导读 | 星芒AI

STARLINK-5973 是 SpaceX Starlink 项目中的一颗低轨通信卫星,属于第 21 批组网发射的“星链”卫星之一。该卫星运行在约 550 公里的高度,旨在为全球用户提供高速互联网服务。它采用先进的推进系统和激光通信技术,具备自动避撞功能,以确保在轨安全。作为 Starlink 卫星群的一部分,STARLINK-5973 有助于扩大覆盖范围,提升网络连接的稳定性和速度,特别是在偏远和网络基础设施薄弱的地区。

基本信息
目录编号:
56916
目录名称:
STARLINK-5973
国际标识:
2023-083AS
轨道中心:
EARTH
卫星名称:
星链-5973
卫星全名:
星链-5973 (STARLINK-5973 )
卫星状态:
在轨 (已飞行923 天)
发射日期:
2023-06-12 UTC
国别 :
美国 (US)
星等 :
--
轨道信息
数据来源 国际轨道数据 AOE轨道数据
星历时间 2025-12-21T17:16:50+0800
8小时前
查看轨道信息
2025-12-21T04:00:00+0800
21小时前
查看轨道信息
半长轴 6937.232km 6937.2km
偏心率 0.0001135 0.0001915
轨道倾角 43.003° 42.998°
近地点辐角 270.139° 259.678°
升交点赤经 134.077° 137.076°
平近点角 89.933° 343.872°
近地点 558.307km 557.734km
远地点 559.883km 560.392km
周期 95.838分钟 95.838分钟
每日圈数 15.025313 15.025414
详细信息
固有亮度:
5
最大亮度:
2.4
卫星平台:
Starlink v1.5
覆盖范围:
全球
运营商:
太空探索技术公司
运营商所在国:
美国
制造商(研发单位):
太空探索技术公司
制造商所在国:
美国
使用方式:
暂无
卫星简介
星链(Starlink)计划是由太空探索技术公司(SpaceX)提出的一个巨型低轨卫星互联网星座项目,计划在2019年至2024年间在太空搭建由约1.2万颗卫星组成的“星链”网络,其中1584颗将部署在地球上空550千米处的近地轨道,并从2020年开始工作。该卫星仍在工作。
2D轨道图
3D轨道图
轨道高度分析图
轨道倾角分析图
轨道综合分析图
查看轨道综合分析图